This is the latest recevied weather packets stored in our database for station/object UR7D-12. If no packets are shown the sender has not sent any weather packets the latest 10 day(s).
| Time | Temp. | Humidity | Pressure | Rain* | Wind** | Luminosity | Snow |
|---|---|---|---|---|---|---|---|
| 1777892633 | 21.67° C | 37% | 992.4 hPa | 0 mm | - | - | - |
| 1777892031 | 21.67° C | 37% | 992.5 hPa | 0 mm | - | - | - |
| 1777891730 | 21.67° C | 37% | 992.5 hPa | 0 mm | - | - | - |
| 1777891430 | 21.67° C | 37% | 992.7 hPa | 0 mm | - | - | - |
| 1777891130 | 21.11° C | 38% | 992.7 hPa | 0 mm | - | - | - |
| 1777890830 | 21.67° C | 37% | 992.8 hPa | 0 mm | - | - | - |
| 1777890529 | 21.67° C | 36% | 992.8 hPa | 0 mm | - | - | - |
| 1777890229 | 21.11° C | 36% | 993 hPa | 0 mm | - | - | - |
| 1777889929 | 21.11° C | 38% | 993.1 hPa | 0 mm | - | - | - |
| 1777889628 | 20.56° C | 36% | 993.1 hPa | 0 mm | - | - | - |
| 1777888727 | 20.56° C | 37% | 993.2 hPa | 0 mm | - | - | - |
| 1777887828 | 20.56° C | 39% | 993.4 hPa | 0 mm | - | - | - |
| 1777887526 | 20.56° C | 42% | 993.4 hPa | 0 mm | - | - | - |
| 1777886926 | 20° C | 42% | 993.6 hPa | 0 mm | - | - | - |
| 1777886626 | 20° C | 42% | 993.6 hPa | 0 mm | - | - | - |
| 1777885725 | 20.56° C | 42% | 993.7 hPa | 0 mm | - | - | - |
| 1777885424 | 20° C | 41% | 993.7 hPa | 0 mm | - | - | - |
| 1777884523 | 19.44° C | 42% | 993.7 hPa | 0 mm | - | - | - |
| 1777884223 | 19.44° C | 40% | 993.7 hPa | 0 mm | - | - | - |
| 1777883926 | 19.44° C | 41% | 993.7 hPa | 0 mm | - | - | - |
| 1777883322 | 18.89° C | 47% | 993.8 hPa | 0 mm | - | - | - |
| 1777883022 | 18.89° C | 46% | 993.8 hPa | 0 mm | - | - | - |
| 1777882721 | 18.89° C | 47% | 993.8 hPa | 0 mm | - | - | - |
| 1777882424 | 18.33° C | 49% | 993.9 hPa | 0 mm | - | - | - |
| 1777882121 | 17.78° C | 53% | 993.9 hPa | 0 mm | - | - | - |
* Rain latest hour (hover to see other rain measurements)
** Current wind speed in m/s (hover to see current wind gust speed)